sat.trackr.live / text

‹ back to catalog

STARLINK-37434

NORAD 69252 · 2026-117Q

PAYLOAD ACTIVE UNKNOWN

§ Identity

Operator
Country
US
Launch date
2026-05-29
Launch site
AFETR
Launch vehicle
Mass (kg)
RCS (m²)

Purposes: comms

External: N2YO · Heavens-Above · Gunter

§ Orbital elements

Epoch: 2026-09-20T00:01:59.348640Z

Period
93.85 min
Inclination
53.1596°
Eccentricity
0.0001626
Mean motion
15.34406595 rev/d
Perigee alt
461.6 km
Apogee alt
463.8 km
Semi-major
6,840.8 km
B*
4.9365e-4
RAAN
155.8561°
Arg perigee
81.7264°
Mean anomaly
278.3923°
Rev number
1,759

§ Raw data

STARLINK-374341 69252U 26117Q   26263.00138135  .00016342  00000+0  49365-3 0  99962 69252  53.1596 155.8561 0001626  81.7264 278.3923 15.34406595 17597

JSON: /api/v1/satellites/69252 · /tle

For live sub-satellite position, see the globe view (requires WebGL).

§ Visibility from observer

Set your observer location to see the next 7 days of passes ≥ 10°. The values pass through the URL so the page stays shareable.

No JS? Fill the form by hand. The geolocation button needs JavaScript.